This is the latest recevied weather packets stored in our database for station/object KJ4EBE. If no packets are shown the sender has not sent any weather packets the latest 10 day(s).
| Time | Temp. | Humidity | Pressure | Rain* | Wind** | Luminosity | Snow |
|---|---|---|---|---|---|---|---|
| 1777992232 | 23.89° C | 83% | 1007.8 hPa | 0 mm | - | 165 W/m² | - |
| 1777991929 | 23.89° C | 85% | 1007.6 hPa | 0 mm | - | 254 W/m² | - |
| 1777991627 | 23.33° C | 85% | 1007.5 hPa | 0 mm | - | 201 W/m² | - |
| 1777991324 | 23.33° C | 85% | 1007.7 hPa | 0 mm | - | 198 W/m² | - |
| 1777991021 | 23.33° C | 86% | 1007.4 hPa | 0 mm | - | 139 W/m² | - |
| 1777990718 | 23.33° C | 85% | 1007.5 hPa | 0 mm | - | 181 W/m² | - |
| 1777990416 | 22.78° C | 86% | 1007.6 hPa | 0 mm | - | 167 W/m² | - |
| 1777989808 | 22.78° C | 87% | 1007.5 hPa | 0 mm | - | 158 W/m² | - |
| 1777989506 | 22.78° C | 87% | 1007.1 hPa | 0 mm | - | 146 W/m² | - |
| 1777989202 | 22.22° C | 88% | 1007.4 hPa | 0 mm | - | 107 W/m² | - |
| 1777988898 | 22.22° C | 88% | 1007.2 hPa | 0 mm | - | 81 W/m² | - |
| 1777988595 | 22.22° C | 88% | 1007.1 hPa | 0 mm | - | 90 W/m² | - |
| 1777988291 | 22.22° C | 88% | 1007.1 hPa | 0 mm | - | 84 W/m² | - |
| 1777987989 | 22.78° C | 87% | 1007.3 hPa | 0 mm | - | 78 W/m² | - |
| 1777987684 | 22.78° C | 88% | 1007.1 hPa | 0 mm | - | 131 W/m² | - |
| 1777987381 | 22.22° C | 88% | 1006.9 hPa | 0 mm | - | 81 W/m² | - |
| 1777987079 | 22.22° C | 88% | 1006.9 hPa | 0 mm | - | 93 W/m² | - |
| 1777986776 | 22.22° C | 88% | 1006.9 hPa | 0 mm | - | 112 W/m² | - |
| 1777986474 | 22.22° C | 89% | 1006.8 hPa | 0 mm | - | 86 W/m² | - |
| 1777986172 | 22.22° C | 89% | 1006.8 hPa | 0 mm | - | 76 W/m² | - |
| 1777985868 | 22.22° C | 89% | 1006.7 hPa | 0 mm | - | 67 W/m² | - |
| 1777985566 | 21.67° C | 89% | 1006.6 hPa | 0 mm | - | 55 W/m² | - |
| 1777985262 | 21.67° C | 89% | 1006.7 hPa | 0 mm | - | 50 W/m² | - |
| 1777984959 | 21.67° C | 89% | 1006.4 hPa | 0 mm | - | 45 W/m² | - |
| 1777984654 | 21.67° C | 89% | 1006.4 hPa | 0 mm | - | 47 W/m² | - |
* Rain latest hour (hover to see other rain measurements)
** Current wind speed in m/s (hover to see current wind gust speed)